Track STARLINK-3354 now! 10-day predictions STARLINK-3354 is classified as:
1 51146U 22005AU 22142.58334491 .00001763 00000-0 12889-3 0 9992 2 51146 53.2175 46.0704 0001650 53.3842 327.6984 15.08817680 1307